User: anonymous   Login
Location: Unspecified
(0.0000°N, 0.0000°E)
Time: 01:37:17
(UTC+00:00)
Language:

DSP F6R - Orbit

View from above orbital plane
View from above orbital plane
View from above satellite
View from above satellite

Ground track
Ground track

The orbit data is extracted from the following two-line orbital elements,

1 15453U 84129A   23081.21175117 -.00000063  00000-0  00000+0 0  9990
2 15453  13.4103 330.1802 0002387 142.9868  56.1372  0.98854276 14331
Epoch (UTC): 22 March 2023 05:04:55
Eccentricity: 0.0002387
inclination: 13.4103°
perigee height: 36178 km
apogee height: 36198 km
right ascension of ascending node: 330.1802°
argument of perigee: 142.9868°
revolutions per day: 0.98854276
mean anomaly at epoch: 56.1372°
orbit number at epoch: 1433

The dashed part of the orbit path shows where the satellite is in the earth's shadow,  

DLR